When you browse on this site, cookies collect data to enhance your experience and personalize the content and advertising you see.
Visit our Privacy Policy to learn more. By continuing to use the site, you agree to this use of cookies and data.
  • In Czech Republic
  • List of Countries
  • For 7 days
  • Water Temperature
  • Weather Map
  • Weather Widgets
  • user-avatar
    Login

    Hourly Weather Essen

    Today, 21 October, Monday

    Time Temperature Precipitation Wind Pressure Humidity
    00:00 +13°C° 2.2 mm 2 mps 750 mmHg 96%
    01:00 +13°C° 0 mm 2 mps 750 mmHg 96%
    02:00 +13°C° 0 mm 1 mps 750 mmHg 96%
    03:00 +13°C° 0 mm 1 mps 750 mmHg 97%
    04:00 +13°C° 0 mm 1 mps 750 mmHg 96%
    05:00 +13°C° 0 mm 2 mps 751 mmHg 95%
    06:00 +14°C° 0 mm 2 mps 751 mmHg 95%
    07:00 +13°C° 0 mm 3 mps 752 mmHg 89%
    08:00 +14°C° 0 mm 3 mps 752 mmHg 82%
    09:00 +15°C° 0 mm 4 mps 753 mmHg 76%
    10:00 +17°C° 0 mm 4 mps 754 mmHg 72%
    11:00 +16°C° 0 mm 5 mps 754 mmHg 67%
    12:00 +16°C° 0 mm 5 mps 755 mmHg 63%
    13:00 +16°C° 0 mm 5 mps 755 mmHg 63%
    14:00 +15°C° 0 mm 5 mps 755 mmHg 64%
    15:00 +15°C° 0 mm 5 mps 755 mmHg 64%
    16:00 +14°C° 0 mm 5 mps 755 mmHg 65%
    17:00 +14°C° 0 mm 4 mps 756 mmHg 66%
    18:00 +13°C° 0 mm 4 mps 756 mmHg 68%
    19:00 +13°C° 0 mm 4 mps 757 mmHg 70%
    20:00 +12°C° 0 mm 4 mps 757 mmHg 73%
    21:00 +12°C° 0 mm 4 mps 757 mmHg 76%
    22:00 +12°C° 0 mm 4 mps 757 mmHg 78%
    23:00 +11°C° 0 mm 3 mps 758 mmHg 81%

    Tomorrow, 22 October, Tuesday

    Time Temperature Precipitation Wind Pressure Humidity
    00:00 +11°C° 0 mm 3 mps 758 mmHg 83%
    01:00 +11°C° 0 mm 3 mps 758 mmHg 85%
    02:00 +10°C° 0 mm 3 mps 758 mmHg 86%
    03:00 +10°C° 0 mm 3 mps 758 mmHg 88%
    04:00 +10°C° 0 mm 3 mps 758 mmHg 89%
    05:00 +9°C° 0 mm 3 mps 759 mmHg 89%
    06:00 +9°C° 0 mm 3 mps 759 mmHg 90%
    07:00 +10°C° 0 mm 3 mps 759 mmHg 86%
    08:00 +11°C° 0 mm 3 mps 759 mmHg 83%
    09:00 +12°C° 0 mm 3 mps 760 mmHg 79%
    10:00 +12°C° 0 mm 3 mps 760 mmHg 75%
    11:00 +14°C° 0 mm 2 mps 760 mmHg 71%
    12:00 +15°C° 0 mm 2 mps 760 mmHg 67%
    13:00 +15°C° 0 mm 2 mps 760 mmHg 68%
    14:00 +15°C° 0 mm 1 mps 759 mmHg 69%
    15:00 +15°C° 0 mm 1 mps 759 mmHg 70%
    16:00 +14°C° 0 mm 1 mps 759 mmHg 75%
    17:00 +13°C° 0 mm 1 mps 759 mmHg 79%
    18:00 +11°C° 0 mm 0 mps 760 mmHg 84%
    19:00 +10°C° 0 mm 0 mps 759 mmHg 85%
    20:00 +10°C° 0 mm 0 mps 759 mmHg 85%
    21:00 +10°C° 0 mm 0 mps 759 mmHg 86%
    22:00 +11°C° 0 mm 1 mps 759 mmHg 86%
    23:00 +10°C° 0 mm 1 mps 759 mmHg 87%

    Day after tomorrow, 23 October, Wednesday

    Time Temperature Precipitation Wind Pressure Humidity
    00:00 +10°C° 0 mm 1 mps 759 mmHg 87%
    01:00 +10°C° 0 mm 1 mps 758 mmHg 87%
    02:00 +10°C° 0 mm 1 mps 758 mmHg 87%
    03:00 +9°C° 0 mm 2 mps 757 mmHg 86%
    04:00 +9°C° 0 mm 2 mps 757 mmHg 86%
    05:00 +9°C° 0 mm 2 mps 757 mmHg 86%
    06:00 +9°C° 0 mm 2 mps 756 mmHg 86%
    07:00 +10°C° 0 mm 2 mps 756 mmHg 82%
    08:00 +13°C° 0 mm 2 mps 755 mmHg 77%
    09:00 +14°C° 0 mm 2 mps 755 mmHg 73%
    10:00 +16°C° 0 mm 2 mps 754 mmHg 70%
    11:00 +17°C° 0 mm 2 mps 754 mmHg 67%
    12:00 +19°C° 0 mm 2 mps 754 mmHg 64%
    13:00 +19°C° 0 mm 2 mps 753 mmHg 66%
    14:00 +19°C° 0 mm 2 mps 752 mmHg 69%
    15:00 +19°C° 0 mm 2 mps 752 mmHg 71%
    16:00 +18°C° 0 mm 2 mps 751 mmHg 75%
    17:00 +17°C° 0 mm 3 mps 751 mmHg 79%
    18:00 +16°C° 0 mm 3 mps 751 mmHg 83%
    19:00 +16°C° 0 mm 3 mps 751 mmHg 83%
    20:00 +14°C° 0 mm 3 mps 750 mmHg 83%
    21:00 +14°C° 0 mm 3 mps 750 mmHg 84%
    22:00 +15°C° 0 mm 2 mps 750 mmHg 86%
    23:00 +14°C° 0 mm 2 mps 749 mmHg 88%

    24 October, Thursday

    Time Temperature Precipitation Wind Pressure Humidity
    00:00 +14°C° 0 mm 1 mps 749 mmHg 90%
    01:00 +14°C° 0 mm 1 mps 749 mmHg 91%
    02:00 +13°C° 0 mm 1 mps 749 mmHg 92%
    03:00 +13°C° 0 mm 2 mps 748 mmHg 92%
    04:00 +13°C° 0 mm 2 mps 748 mmHg 93%
    05:00 +13°C° 0 mm 2 mps 748 mmHg 93%
    06:00 +12°C° 0 mm 2 mps 748 mmHg 93%
    07:00 +13°C° 0 mm 2 mps 748 mmHg 89%
    08:00 +15°C° 0 mm 2 mps 748 mmHg 84%
    09:00 +16°C° 0 mm 2 mps 748 mmHg 80%
    10:00 +17°C° 0 mm 2 mps 749 mmHg 75%
    11:00 +18°C° 0 mm 2 mps 749 mmHg 70%
    12:00 +20°C° 0 mm 3 mps 749 mmHg 64%
    13:00 +20°C° 0 mm 3 mps 749 mmHg 65%
    14:00 +20°C° 0 mm 3 mps 749 mmHg 66%
    15:00 +20°C° 0 mm 2 mps 749 mmHg 67%
    16:00 +19°C° 0 mm 3 mps 749 mmHg 68%
    17:00 +18°C° 0 mm 3 mps 749 mmHg 70%
    18:00 +17°C° 0 mm 4 mps 750 mmHg 71%
    19:00 +17°C° 0 mm 4 mps 750 mmHg 72%
    20:00 +15°C° 0 mm 4 mps 751 mmHg 72%
    21:00 +15°C° 0 mm 4 mps 751 mmHg 72%
    22:00 +15°C° 0 mm 4 mps 751 mmHg 72%
    23:00 +14°C° 0 mm 4 mps 751 mmHg 72%

    25 October, Friday

    Time Temperature Precipitation Wind Pressure Humidity
    00:00 +14°C° 0 mm 5 mps 752 mmHg 72%
    01:00 +13°C° 0 mm 5 mps 752 mmHg 75%
    02:00 +13°C° 0 mm 5 mps 753 mmHg 77%
    03:00 +13°C° 0 mm 5 mps 753 mmHg 80%
    04:00 +12°C° 0 mm 4 mps 754 mmHg 81%
    05:00 +12°C° 0 mm 4 mps 754 mmHg 82%
    06:00 +11°C° 0 mm 4 mps 755 mmHg 83%
    07:00 +12°C° 0 mm 4 mps 755 mmHg 80%
    08:00 +12°C° 0 mm 4 mps 756 mmHg 76%
    09:00 +13°C° 0 mm 5 mps 757 mmHg 73%
    10:00 +13°C° 0 mm 4 mps 757 mmHg 70%
    11:00 +14°C° 0 mm 4 mps 757 mmHg 67%
    12:00 +14°C° 0 mm 4 mps 757 mmHg 64%
    13:00 +14°C° 0 mm 3 mps 757 mmHg 64%
    14:00 +14°C° 0 mm 3 mps 757 mmHg 63%
    15:00 +15°C° 0 mm 2 mps 757 mmHg 63%
    16:00 +14°C° 0 mm 2 mps 757 mmHg 66%
    17:00 +13°C° 0 mm 2 mps 757 mmHg 69%
    18:00 +13°C° 0 mm 2 mps 756 mmHg 71%
    19:00 +12°C° 0 mm 3 mps 756 mmHg 72%
    20:00 +12°C° 0 mm 3 mps 756 mmHg 73%
    21:00 +12°C° 0 mm 4 mps 756 mmHg 74%
    22:00 +12°C° 0 mm 4 mps 756 mmHg 73%
    23:00 +12°C° 0 mm 4 mps 755 mmHg 72%

    26 October, Saturday

    Time Temperature Precipitation Wind Pressure Humidity
    00:00 +12°C° 0 mm 5 mps 755 mmHg 72%
    01:00 +12°C° 0 mm 5 mps 755 mmHg 71%
    02:00 +12°C° 0 mm 5 mps 754 mmHg 71%
    03:00 +12°C° 0 mm 5 mps 754 mmHg 70%
    04:00 +12°C° 0 mm 5 mps 754 mmHg 70%
    05:00 +12°C° 0 mm 5 mps 754 mmHg 71%
    06:00 +12°C° 0 mm 5 mps 754 mmHg 71%
    07:00 +12°C° 0 mm 5 mps 755 mmHg 70%
    08:00 +13°C° 0 mm 4 mps 755 mmHg 70%
    09:00 +13°C° 0 mm 4 mps 755 mmHg 69%
    10:00 +14°C° 0 mm 4 mps 756 mmHg 70%
    11:00 +14°C° 0 mm 4 mps 756 mmHg 72%
    12:00 +14°C° 0 mm 3 mps 756 mmHg 73%
    13:00 +14°C° 0 mm 3 mps 756 mmHg 74%
    14:00 +14°C° 0 mm 3 mps 756 mmHg 75%
    15:00 +14°C° 0 mm 2 mps 756 mmHg 77%
    16:00 +14°C° 0 mm 2 mps 756 mmHg 78%
    17:00 +13°C° 0 mm 2 mps 757 mmHg 80%
    18:00 +13°C° 0 mm 1 mps 757 mmHg 82%
    19:00 +12°C° 0 mm 1 mps 757 mmHg 83%
    20:00 +12°C° 0 mm 1 mps 758 mmHg 83%
    21:00 +12°C° 0 mm 1 mps 758 mmHg 84%
    22:00 +12°C° 0 mm 1 mps 758 mmHg 85%
    23:00 +12°C° 0 mm 1 mps 758 mmHg 85%

    27 October, Sunday

    Time Temperature Precipitation Wind Pressure Humidity
    00:00 +12°C° 0 mm 1 mps 757 mmHg 86%
    01:00 +12°C° 0 mm 1 mps 757 mmHg 86%
    02:00 +11°C° 0 mm 1 mps 757 mmHg 87%
    03:00 +11°C° 0 mm 1 mps 757 mmHg 87%
    04:00 +11°C° 0 mm 1 mps 757 mmHg 88%
    05:00 +11°C° 0 mm 1 mps 757 mmHg 89%
    06:00 +10°C° 0 mm 1 mps 757 mmHg 90%
    07:00 +11°C° 0 mm 1 mps 757 mmHg 86%
    08:00 +12°C° 0 mm 1 mps 757 mmHg 81%
    09:00 +13°C° 0 mm 1 mps 757 mmHg 77%
    10:00 +15°C° 0 mm 1 mps 757 mmHg 72%
    11:00 +16°C° 0 mm 1 mps 757 mmHg 68%
    12:00 +18°C° 0 mm 1 mps 756 mmHg 63%
    13:00 +18°C° 0 mm 1 mps 756 mmHg 64%
    14:00 +17°C° 0 mm 2 mps 756 mmHg 66%
    15:00 +17°C° 0 mm 2 mps 755 mmHg 67%
    16:00 +16°C° 0 mm 2 mps 755 mmHg 73%
    17:00 +15°C° 0 mm 2 mps 755 mmHg 78%
    18:00 +13°C° 0 mm 3 mps 755 mmHg 84%
    19:00 +13°C° 0 mm 2 mps 755 mmHg 84%
    20:00 +13°C° 0 mm 2 mps 755 mmHg 84%
    21:00 +13°C° 0 mm 2 mps 754 mmHg 85%
    22:00 +13°C° 0 mm 2 mps 754 mmHg 85%
    23:00 +13°C° 0 mm 2 mps 754 mmHg 86%
    Show more